Ypsilanti, MI

8:05 PM EDT on April 20, 2018 (GMT -0400)
Willow Run

Weather History for KYIP - January, 2014

Change the Weather History Date:

Wednesday, January 15, 2014

  Actual Average Record
Temperature  
Mean Temperature 26 °F -  
Max Temperature 32 °F 28 °F 52 °F (1949)
Min Temperature 19 °F 15 °F -11 °F (1979)
Degree Days  
Heating Degree Days 40    
Moisture  
Dew Point 17 °F    
Average Humidity 64    
Maximum Humidity 78    
Minimum Humidity 54    
Precipitation  
Precipitation 0.00 in - - ()
Sea Level Pressure  
Sea Level Pressure 29.91 in    
Wind  
Wind Speed 17 mph (WSW)    
Max Wind Speed 30 mph    
Max Gust Speed 36 mph    
Visibility 9 miles    
Events Snow    
Averages and records for this station are not official NWS values.
T = Trace of Precipitation, MM = Missing Value Source: NWS Daily Summary

Daily Weather History Graph

Daily Weather History Graph

Search for Another Location

Airport or City:

Astronomy

Jan. 15, 2014 Rise Set
Actual Time 8:00 AM EST 5:27 PM EST
Civil Twilight 7:29 AM EST 5:58 PM EST
Nautical Twilight 6:54 AM EST 6:32 PM EST
Astronomical Twilight 6:21 AM EST 7:06 PM EST
Moon 5:25 PM EST (1/15) 7:14 AM EST (1/15)
Length of Visible Light 10h 28m
Length of Day
9h 26m
Full, 100% of the Moon is Illuminated
Jan 15
Full
Jan 15
Full
Jan 24
Last Quarter
Jan 30
New
Feb 6
First Quarter

Hourly Weather History & Observations

Time (EST) Temp. Windchill Dew Point Humidity Pressure Visibility Wind Dir Wind Speed Gust Speed Precip Events Conditions
12:53 AM 32.0 °F 17.6 °F 17.1 °F 54% 29.74 in 10.0 mi SW 29.9 mph 35.7 mph N/A   Overcast
1:53 AM 28.9 °F 16.9 °F 14.0 °F 54% 29.75 in 10.0 mi WSW 17.3 mph 34.5 mph N/A   Scattered Clouds
2:53 AM 28.9 °F 17.7 °F 16.0 °F 58% 29.76 in 10.0 mi SW 15.0 mph 26.5 mph N/A   Overcast
3:53 AM 28.9 °F 16.1 °F 16.0 °F 58% 29.77 in 10.0 mi SW 19.6 mph 27.6 mph N/A   Overcast
4:53 AM 28.0 °F 14.9 °F 17.1 °F 63% 29.78 in 10.0 mi SW 19.6 mph 28.8 mph N/A   Overcast
5:23 AM 28.4 °F 15.4 °F 17.6 °F 64% 29.77 in 9.0 mi SW 19.6 mph 31.1 mph 0.00 in   Overcast
5:31 AM 28.4 °F 14.4 °F 17.6 °F 64% 29.77 in 10.0 mi SW 23.0 mph 26.5 mph 0.00 in   Overcast
5:53 AM 28.0 °F 14.9 °F 17.1 °F 63% 29.79 in 10.0 mi SW 19.6 mph 26.5 mph 0.00 in   Overcast
6:53 AM 28.0 °F 15.3 °F 17.1 °F 63% 29.81 in 10.0 mi SW 18.4 mph 26.5 mph N/A   Overcast
7:53 AM 28.0 °F 15.3 °F 18.0 °F 66% 29.84 in 10.0 mi WSW 18.4 mph - N/A   Overcast
8:53 AM 28.9 °F 15.8 °F 18.0 °F 64% 29.88 in 10.0 mi WSW 20.7 mph 32.2 mph N/A   Overcast
9:08 AM 28.4 °F 17.5 °F 19.4 °F 69% 29.88 in 10.0 mi WSW 13.8 mph - N/A   Overcast
9:24 AM 28.4 °F 16.2 °F 19.4 °F 69% 29.89 in 2.5 mi WSW 17.3 mph - 0.00 in Snow Light Snow
9:34 AM 28.4 °F 17.5 °F 19.4 °F 69% 29.89 in 3.0 mi WSW 13.8 mph - 0.00 in Snow Light Snow
9:53 AM 28.9 °F 17.7 °F 19.9 °F 69% 29.92 in 4.0 mi WSW 15.0 mph - 0.00 in Snow Light Snow
10:26 AM 30.2 °F 18.9 °F 17.6 °F 60% 29.92 in 10.0 mi West 16.1 mph 21.9 mph 0.00 in   Overcast
10:33 AM 30.2 °F 19.3 °F 17.6 °F 60% 29.92 in 10.0 mi WNW 15.0 mph 21.9 mph 0.00 in   Overcast
10:53 AM 28.9 °F 16.1 °F 17.1 °F 61% 29.95 in 10.0 mi WNW 19.6 mph 24.2 mph 0.00 in   Overcast
11:13 AM 28.4 °F 15.8 °F 17.6 °F 64% 29.93 in 10.0 mi West 18.4 mph 23.0 mph 0.00 in   Overcast
11:50 AM 28.4 °F 17.5 °F 17.6 °F 64% 29.94 in 9.0 mi West 13.8 mph - 0.00 in Snow Light Snow
11:53 AM 28.9 °F 18.6 °F 18.0 °F 64% 29.95 in 9.0 mi West 12.7 mph - 0.00 in Snow Light Snow
12:00 PM 28.4 °F 18.0 °F 17.6 °F 64% 29.93 in 8.0 mi West 12.7 mph - 0.00 in Snow Light Snow
12:33 PM 30.2 °F 21.3 °F 17.6 °F 60% 29.93 in 10.0 mi West 10.4 mph - 0.00 in   Overcast
12:48 PM 30.2 °F 20.8 °F 17.6 °F 60% 29.93 in 10.0 mi West 11.5 mph - 0.00 in   Overcast
12:53 PM 30.0 °F 20.0 °F 17.1 °F 59% 29.94 in 10.0 mi West 12.7 mph - 0.00 in   Overcast
1:18 PM 30.2 °F 19.3 °F 17.6 °F 60% 29.92 in 10.0 mi West 15.0 mph - N/A   Overcast
1:53 PM 28.9 °F 19.8 °F 19.9 °F 69% 29.94 in 9.0 mi SW 10.4 mph - 0.00 in Snow Light Snow
2:53 PM 30.0 °F 20.0 °F 19.0 °F 64% 29.95 in 9.0 mi WSW 12.7 mph - 0.00 in Snow Light Snow
3:02 PM 28.4 °F 18.5 °F 19.4 °F 69% 29.93 in 4.0 mi WSW 11.5 mph - 0.00 in Snow Light Snow
3:14 PM 30.2 °F 20.8 °F 19.4 °F 64% 29.94 in 9.0 mi WSW 11.5 mph - 0.00 in   Overcast
3:53 PM 30.0 °F 23.2 °F 18.0 °F 61% 29.96 in 9.0 mi WSW 6.9 mph - 0.00 in Snow Light Snow
4:53 PM 30.0 °F 20.0 °F 17.1 °F 59% 29.98 in 10.0 mi West 12.7 mph - 0.00 in   Overcast
5:53 PM 28.0 °F 15.7 °F 16.0 °F 61% 30.01 in 10.0 mi West 17.3 mph - N/A   Overcast
6:53 PM 27.0 °F 18.0 °F 15.1 °F 61% 30.00 in 10.0 mi WSW 9.2 mph - 0.00 in   Overcast
7:53 PM 25.0 °F 17.1 °F 14.0 °F 63% 30.01 in 10.0 mi West 6.9 mph - N/A   Mostly Cloudy
8:53 PM 21.0 °F 13.4 °F 15.1 °F 78% 30.02 in 10.0 mi SW 5.8 mph - N/A   Clear
9:53 PM 19.9 °F 9.3 °F 14.0 °F 78% 30.00 in 10.0 mi SSW 9.2 mph - N/A   Clear
10:53 PM 23.0 °F 13.9 °F 15.1 °F 72% 30.01 in 10.0 mi SW 8.1 mph - N/A   Overcast
11:22 PM 23.0 °F 14.7 °F 15.8 °F 74% 29.98 in 10.0 mi SSW 6.9 mph - N/A   Overcast
11:53 PM 23.0 °F 12.4 °F 12.9 °F 65% 29.98 in 10.0 mi SW 10.4 mph - N/A   Overcast